Preston, MN

4:26 AM CDT on August 24, 2017 (GMT -0500)
Preston

Weather History for KFKA - June, 2013

Change the Weather History Date:

Monday, June 17, 2013

  Actual Average (KRST) Record (KRST)
Temperature  
Mean Temperature 72 °F -  
Max Temperature 82 °F 77 °F 94 °F (1933)
Min Temperature 63 °F 55 °F 35 °F (1915)
Cooling Degree Days 8    
Growing Degree Days 22 (Base 50)    
Moisture  
Dew Point 54 °F    
Average Humidity 54    
Maximum Humidity 77    
Minimum Humidity 30    
Precipitation  
Precipitation 0.00 in - - ()
Sea Level Pressure  
Sea Level Pressure 29.94 in    
Wind  
Wind Speed 8 mph (NW)    
Max Wind Speed 17 mph    
Max Gust Speed 22 mph    
Visibility 10 miles    
Events      
Averages and records for this station are not official NWS values.
T = Trace of Precipitation, MM = Missing Value Source: NWS Daily Summary

Daily Weather History Graph

Daily Weather History Graph

Search for Another Location

Airport or City:

Trip Planner

Search our weather history database for the weather conditions in past years. The results will help you decide how hot, cold, wet, or windy it might be!

Date:

Astronomy

Jun. 17, 2013 Rise Set
Actual Time 5:26 AM CDT 8:52 PM CDT
Civil Twilight 4:50 AM CDT 9:29 PM CDT
Nautical Twilight 4:03 AM CDT 10:16 PM CDT
Astronomical Twilight 3:03 AM CDT 11:15 PM CDT
Moon 2:22 PM CDT (6/17) 1:13 AM CDT (6/17)
Length of Visible Light 16h 38m
Length of Day
15h 26m
First Quarter, 60% of the Moon is Illuminated
Jun 17
First Quarter
Jun 23
Full
Jun 29
Last Quarter
Jul 8
New
Jul 15
First Quarter

Hourly Weather History & Observations

Time (CDT) Temp. Heat Index Dew Point Humidity Pressure Visibility Wind Dir Wind Speed Gust Speed Precip Events Conditions
12:17 AM 66.6 °F - 53.6 °F 63% 29.93 in 10.0 mi WSW 4.6 mph - N/A   Clear
12:37 AM 66.2 °F - 53.1 °F 63% 29.94 in 10.0 mi SW 6.9 mph - N/A   Clear
12:57 AM 65.7 °F - 53.1 °F 64% 29.93 in 10.0 mi SW 5.8 mph - N/A   Clear
1:17 AM 65.3 °F - 53.6 °F 66% 29.92 in 10.0 mi WSW 5.8 mph - N/A   Clear
1:37 AM 65.7 °F - 55.4 °F 69% 29.92 in 10.0 mi West 6.9 mph - N/A   Clear
1:57 AM 66.2 °F - 55.6 °F 69% 29.92 in 10.0 mi WSW 6.9 mph - N/A   Clear
2:17 AM 64.6 °F - 55.9 °F 74% 29.93 in 10.0 mi SW 6.9 mph - N/A   Clear
2:37 AM 63.5 °F - 56.3 °F 77% 29.93 in 10.0 mi SW 9.2 mph - N/A   Clear
2:57 AM 63.7 °F - 56.3 °F 77% 29.93 in 10.0 mi WSW 9.2 mph - N/A   Clear
3:17 AM 65.7 °F - 55.4 °F 69% 29.92 in 10.0 mi WSW 9.2 mph - N/A   Clear
3:37 AM 65.7 °F - 54.9 °F 68% 29.92 in 10.0 mi WSW 11.5 mph - N/A   Clear
3:57 AM 65.7 °F - 54.1 °F 66% 29.92 in 10.0 mi West 9.2 mph - N/A   Clear
4:17 AM 64.9 °F - 54.0 °F 68% 29.92 in 10.0 mi West 10.4 mph - N/A   Clear
4:37 AM 64.4 °F - 53.6 °F 68% 29.91 in 10.0 mi West 9.2 mph - N/A   Clear
4:58 AM 63.5 °F - 53.6 °F 70% 29.92 in 10.0 mi West 9.2 mph - N/A   Clear
5:17 AM 63.7 °F - 53.6 °F 70% 29.91 in 10.0 mi WNW 8.1 mph - N/A   Clear
5:37 AM 63.0 °F - 53.6 °F 71% 29.91 in 10.0 mi WNW 9.2 mph - N/A   Clear
5:57 AM 63.5 °F - 54.1 °F 72% 29.92 in 10.0 mi West 9.2 mph - N/A   Clear
6:17 AM 63.7 °F - 54.3 °F 72% 29.92 in 10.0 mi West 10.4 mph - N/A   Clear
6:38 AM 64.8 °F - 55.2 °F 71% 29.92 in 10.0 mi WNW 8.1 mph - N/A   Clear
6:58 AM 65.5 °F - 55.6 °F 70% 29.93 in 10.0 mi WNW 8.1 mph - N/A   Clear
7:17 AM 66.0 °F - 55.9 °F 70% 29.94 in 10.0 mi WNW 6.9 mph - N/A   Clear
7:38 AM 67.5 °F - 57.2 °F 70% 29.94 in 10.0 mi NW 6.9 mph - N/A   Clear
7:57 AM 68.4 °F - 57.0 °F 67% 29.95 in 10.0 mi NW 6.9 mph - N/A   Clear
8:18 AM 68.9 °F - 57.2 °F 66% 29.96 in 10.0 mi NW 6.9 mph - N/A   Clear
8:38 AM 70.2 °F - 57.6 °F 64% 29.96 in 10.0 mi NW 6.9 mph - N/A   Clear
8:58 AM 71.2 °F - 58.1 °F 63% 29.96 in 10.0 mi WNW 6.9 mph - N/A   Clear
9:18 AM 72.7 °F - 58.5 °F 61% 29.96 in 10.0 mi NW 5.8 mph - N/A   Clear
9:38 AM 74.8 °F - 58.1 °F 56% 29.97 in 10.0 mi WNW 3.5 mph - N/A   Clear
9:57 AM 75.6 °F - 56.3 °F 51% 29.97 in 10.0 mi NW 4.6 mph - N/A   Clear
10:18 AM 78.1 °F - 54.3 °F 44% 29.97 in 10.0 mi NNW 5.8 mph - N/A   Scattered Clouds
10:38 AM 79.0 °F - 53.6 °F 41% 29.97 in 10.0 mi NNW 8.1 mph - N/A   Scattered Clouds
10:58 AM 79.7 °F - 53.2 °F 40% 29.96 in 10.0 mi NNW 9.2 mph - N/A   Clear
11:18 AM 78.8 °F - 52.7 °F 40% 29.97 in 10.0 mi WNW 8.1 mph - N/A   Scattered Clouds
11:38 AM 80.2 °F - 51.6 °F 37% 29.97 in 10.0 mi NNW 9.2 mph - N/A   Scattered Clouds
11:57 AM 80.1 °F - 50.9 °F 36% 29.97 in 10.0 mi NW 11.5 mph 18.4 mph N/A   Scattered Clouds
12:18 PM 80.2 °F - 51.1 °F 36% 29.97 in 10.0 mi NNW 12.7 mph 17.3 mph N/A   Scattered Clouds
12:37 PM 80.2 °F - 50.7 °F 36% 29.97 in 10.0 mi NW 11.5 mph 21.9 mph N/A   Scattered Clouds
12:57 PM 81.3 °F - 50.5 °F 34% 29.97 in 10.0 mi NW 15.0 mph 18.4 mph N/A   Scattered Clouds
1:18 PM 80.4 °F - 52.2 °F 37% 29.97 in 10.0 mi WNW 10.4 mph 18.4 mph N/A   Mostly Cloudy
1:37 PM 82.2 °F - 52.2 °F 35% 29.96 in 10.0 mi WNW 10.4 mph - N/A   Mostly Cloudy
1:57 PM 80.4 °F 80.1 °F 53.2 °F 39% 29.96 in 10.0 mi WNW 11.5 mph 18.4 mph N/A   Mostly Cloudy
2:18 PM 80.2 °F - 51.4 °F 37% 29.96 in 10.0 mi NW 10.4 mph - N/A   Scattered Clouds
2:37 PM 81.7 °F - 51.3 °F 35% 29.96 in 10.0 mi NW 8.1 mph 20.7 mph N/A   Scattered Clouds
2:58 PM 80.8 °F - 50.9 °F 35% 29.95 in 10.0 mi NNW 11.5 mph - N/A   Scattered Clouds
3:17 PM 81.1 °F 80.7 °F 54.1 °F 39% 29.94 in 10.0 mi West 11.5 mph 18.4 mph N/A   Scattered Clouds
3:38 PM 82.4 °F - 51.1 °F 34% 29.94 in 10.0 mi WNW 16.1 mph - N/A   Scattered Clouds
3:57 PM 82.4 °F - 50.7 °F 33% 29.94 in 10.0 mi West 11.5 mph - N/A   Clear
4:17 PM 82.4 °F - 49.8 °F 32% 29.94 in 10.0 mi WNW 16.1 mph 21.9 mph N/A   Scattered Clouds
4:37 PM 81.0 °F - 49.5 °F 33% 29.93 in 10.0 mi WNW 15.0 mph 19.6 mph N/A   Scattered Clouds
4:58 PM 82.4 °F - 48.2 °F 30% 29.93 in 10.0 mi NW 8.1 mph - N/A   Clear
5:18 PM 82.2 °F - 47.7 °F 30% 29.93 in 10.0 mi NW 15.0 mph 19.6 mph N/A   Clear
5:38 PM 81.9 °F - 48.2 °F 31% 29.93 in 10.0 mi NW 8.1 mph 20.7 mph N/A   Clear
5:57 PM 81.9 °F - 48.2 °F 31% 29.92 in 10.0 mi NNW 17.3 mph 20.7 mph N/A   Scattered Clouds
6:17 PM 80.4 °F - 47.8 °F 32% 29.92 in 10.0 mi NW 11.5 mph 19.6 mph N/A   Clear
6:38 PM 80.2 °F - 49.1 °F 34% 29.92 in 10.0 mi NNW 9.2 mph - N/A   Clear
6:57 PM 80.2 °F - 49.8 °F 34% 29.92 in 10.0 mi NNW 10.4 mph - N/A   Clear
7:18 PM 78.1 °F - 49.3 °F 36% 29.92 in 10.0 mi NNW 8.1 mph - N/A   Clear
7:37 PM 77.0 °F - 51.1 °F 40% 29.92 in 10.0 mi NNW 6.9 mph - N/A   Clear
7:57 PM 75.9 °F - 52.0 °F 43% 29.92 in 10.0 mi North 5.8 mph - N/A   Clear
8:17 PM 74.3 °F - 52.7 °F 47% 29.92 in 10.0 mi North 4.6 mph - N/A   Clear
8:38 PM 73.4 °F - 53.1 °F 49% 29.93 in 10.0 mi NNE 6.9 mph - N/A   Clear
8:57 PM 71.6 °F - 55.8 °F 57% 29.94 in 10.0 mi NE 5.8 mph - N/A   Clear
9:17 PM 70.7 °F - 56.5 °F 61% 29.95 in 10.0 mi NE 6.9 mph - N/A   Clear
9:37 PM 69.6 °F - 56.7 °F 63% 29.96 in 10.0 mi NE 5.8 mph - N/A   Clear
9:57 PM 68.9 °F - 56.7 °F 65% 29.97 in 10.0 mi NE 4.6 mph - N/A   Clear
10:17 PM 68.0 °F - 56.7 °F 67% 29.98 in 10.0 mi NE 3.5 mph - N/A   Clear
10:37 PM 67.5 °F - 56.3 °F 67% 29.98 in 10.0 mi NNE 4.6 mph - N/A   Clear
10:57 PM 66.4 °F - 56.5 °F 70% 29.98 in 10.0 mi NNE 3.5 mph - N/A   Clear
11:17 PM 66.4 °F - 56.5 °F 70% 29.99 in 10.0 mi North 3.5 mph - N/A   Clear
11:38 PM 66.0 °F - 56.7 °F 72% 29.99 in 10.0 mi North 4.6 mph - N/A   Mostly Cloudy
11:57 PM 64.9 °F - 56.8 °F 75% 29.99 in 10.0 mi North 3.5 mph - N/A   Mostly Cloudy